Date,TemperatureHighF,TemperatureAvgF,TemperatureLowF,DewpointHighF,DewpointAvgF,DewpointLowF,HumidityHigh,HumidityAvg,HumidityLow,PressureMaxIn,PressureMinIn,WindSpeedMaxMPH,WindSpeedAvgMPH,GustSpeedMaxMPH,PrecipitationSumIn
2013-1-1,78.5,64.8,53.3,61.7,57.4,51.8,97,79,55,30.21,30.04,13,1,0,0.00
2013-1-3,82.4,68.4,59.8,69.2,64.3,58.3,98,88,57,30.14,30.01,11,1,0,0.06
2013-1-4,66.1,61.1,57.8,61.2,58.7,56.3,96,92,84,30.27,30.13,11,3,0,0.01
2013-1-5,78.2,66.4,58.6,66.8,61.0,56.9,96,84,65,30.28,30.16,10,2,0,0.00
2013-1-6,83.2,73.0,65.8,72.5,68.1,62.8,94,85,68,30.19,30.06,13,2,0,0.00
2013-1-7,68.7,65.1,61.5,65.7,61.7,59.3,95,89,77,30.20,30.09,13,2,0,0.03
2013-1-8,84.0,71.0,61.2,70.9,65.6,59.5,97,84,61,30.21,30.10,10,2,0,0.00
2013-1-9,86.3,75.6,69.0,72.2,69.1,66.9,97,81,55,30.27,30.15,12,2,0,0.01
2013-1-10,85.3,74.0,67.2,69.9,66.5,62.4,96,79,52,30.27,30.18,15,2,0,0.00
2013-1-11,84.5,72.2,64.3,69.2,64.7,61.3,95,79,48,30.26,30.12,14,2,0,0.00
2013-1-12,83.5,71.3,64.4,71.1,66.4,63.2,96,85,59,30.18,30.07,11,1,0,0.01
2013-1-13,81.1,73.4,68.6,70.3,66.9,65.2,90,81,67,30.12,30.06,7,0,0,0.00
2013-1-14,82.0,69.6,61.9,66.6,62.5,59.3,96,80,50,30.18,30.11,10,1,0,0.01
2013-1-15,80.7,68.4,59.3,68.1,63.1,57.9,97,84,62,30.14,30.05,10,0,0,0.00
2013-1-16,82.8,69.8,61.4,67.3,63.7,60.2,98,83,54,30.11,30.00,10,1,0,0.01
2013-1-17,73.3,63.4,57.6,70.7,59.2,49.0,98,87,68,30.15,30.00,21,4,0,0.03
2013-1-18,65.8,55.9,43.8,57.5,48.3,36.5,91,76,60,30.31,30.14,21,5,0,0.00
2013-1-19,72.1,62.5,56.0,62.4,56.8,51.1,91,82,70,30.25,30.12,11,2,0,0.01
2013-1-20,77.0,71.2,65.5,66.3,63.8,61.6,89,78,66,30.10,30.02,11,1,0,0.00
2013-1-21,70.8,64.0,60.9,62.5,57.3,53.6,84,79,75,30.10,30.02,11,3,0,0.00
2013-1-22,64.5,58.3,52.2,55.0,47.8,37.6,79,69,50,30.28,30.07,16,2,0,0.00
2013-1-23,71.3,59.9,50.0,48.7,41.7,34.8,86,55,28,30.36,30.26,13,2,0,0.00
2013-1-24,71.9,57.4,43.5,53.9,47.4,40.8,93,72,42,30.34,30.24,14,2,0,0.00
2013-1-25,76.5,59.7,48.8,56.9,51.3,47.3,98,77,43,30.32,30.19,10,1,0,0.01
2013-1-26,74.2,60.2,48.3,58.9,53.1,46.4,96,80,42,30.29,30.18,12,1,0,0.00
2013-1-27,79.4,64.8,53.3,61.4,54.7,51.6,97,74,41,30.30,30.20,11,1,0,0.01
2013-1-28,82.8,68.9,60.4,66.0,61.4,57.6,94,78,52,30.31,30.19,11,1,0,0.00
2013-1-29,84.3,70.4,60.4,68.8,64.2,58.3,97,82,56,30.23,30.09,13,2,0,0.00
2013-1-30,80.7,72.3,65.2,68.7,66.2,63.1,93,82,64,30.09,29.92,26,4,0,0.01
2013-1-31,71.2,59.7,50.3,67.7,48.2,32.8,95,68,35,30.24,29.93,21,5,0,0.07
2013-2-1,68.0,54.9,43.7,43.6,37.2,29.8,83,55,26,30.36,30.22,19,2,0,0.00
2013-2-2,73.9,57.8,44.9,51.4,44.8,38.8,87,65,33,30.30,30.15,10,1,0,0.00
2013-2-3,69.7,57.2,44.4,55.4,49.4,41.5,93,77,53,30.21,30.10,13,2,0,0.00
2013-2-4,72.5,55.4,43.8,52.7,45.3,35.9,96,73,27,30.15,30.05,10,1,0,0.01
2013-2-5,77.7,60.7,47.4,57.4,50.3,40.3,91,71,44,30.09,30.00,10,1,0,0.00
2013-2-6,58.1,57.0,55.8,55.5,54.6,53.3,93,92,90,30.04,30.02,1,0,0,0.00
2013-2-8,77.9,68.5,60.3,66.4,62.0,57.1,96,81,53,30.08,29.90,14,4,0,0.12
2013-2-9,78.7,66.3,56.8,57.9,55.7,53.9,95,72,44,30.18,30.06,12,2,0,0.00
2013-2-10,82.7,69.9,61.1,65.1,60.8,56.6,89,74,48,30.23,30.12,18,3,0,0.00
2013-2-11,82.8,70.3,61.1,68.5,64.2,59.1,94,82,59,30.20,30.08,15,2,0,0.00
2013-2-12,81.5,72.2,63.6,71.7,68.1,62.4,97,88,71,30.10,29.96,16,2,0,0.01
2013-2-13,80.8,72.0,64.0,73.3,68.4,55.7,97,89,73,29.99,29.88,22,3,0,0.01
2013-2-14,67.5,63.1,60.4,61.6,59.0,55.2,96,87,72,30.04,29.93,19,2,0,0.25
2013-2-15,71.6,62.2,58.1,62.2,58.1,53.4,97,87,70,30.07,29.95,10,2,0,0.10
2013-2-16,70.0,58.6,50.6,55.4,51.0,39.0,96,78,51,30.12,29.94,23,4,0,0.02
2013-2-17,55.8,48.1,41.4,39.5,29.3,20.0,77,49,28,30.34,30.12,24,4,0,0.00
2013-2-18,71.1,54.2,37.1,48.3,39.3,28.0,81,59,39,30.35,30.20,13,2,0,0.00
2013-2-19,78.2,64.3,51.2,63.4,56.3,47.1,93,76,54,30.21,30.09,14,2,0,0.00
2013-2-20,79.7,66.8,58.7,67.3,61.6,57.0,98,84,59,30.12,30.01,13,2,0,0.00
2013-2-21,82.6,69.1,58.6,69.6,62.8,56.6,95,81,60,30.11,29.98,14,1,0,0.00
2013-2-22,83.5,72.0,61.6,71.5,66.9,60.4,97,85,64,30.07,29.99,16,2,0,0.01
2013-2-23,82.8,73.9,68.0,74.0,70.3,66.2,97,89,74,30.01,29.90,20,2,0,0.00
2013-2-24,82.7,72.8,67.0,73.5,69.5,66.1,98,90,71,29.97,29.89,10,1,0,0.00
2013-2-25,77.1,72.9,69.4,71.2,69.6,68.2,97,90,82,29.91,29.77,9,1,0,0.01
2013-2-26,77.5,72.2,66.7,72.9,68.6,63.8,97,89,78,29.90,29.71,24,3,0,0.45
2013-2-27,73.1,66.0,57.8,64.1,59.4,54.4,94,80,63,29.99,29.88,13,2,0,0.00
2013-2-28,74.5,64.0,54.5,58.4,55.1,50.1,95,75,53,30.01,29.93,16,2,0,0.00
2013-3-1,62.4,59.1,56.0,50.9,46.8,40.3,73,64,54,30.04,29.92,15,4,0,0.00
2013-3-2,61.7,55.7,48.8,45.7,42.6,40.3,76,62,51,30.08,29.99,23,5,0,0.00
2013-3-3,56.9,50.8,41.8,43.1,38.4,30.6,69,62,54,30.17,29.99,21,5,0,0.00
2013-3-4,65.8,53.8,42.1,44.5,40.2,33.0,88,62,34,30.24,30.13,15,2,0,0.00
2013-3-5,74.7,59.8,43.2,62.3,52.7,40.0,92,79,55,30.18,30.05,10,1,0,0.00
2013-3-6,65.9,60.5,54.8,63.9,49.9,40.1,94,69,43,30.15,29.98,23,6,0,0.02
2013-3-7,64.3,54.0,45.1,46.2,40.4,34.6,87,62,39,30.24,30.13,15,3,0,0.00
2013-3-8,73.0,57.5,44.3,50.8,45.0,37.1,93,68,28,30.24,30.13,13,2,0,0.00
2013-3-9,77.8,63.8,47.8,52.8,47.6,43.4,92,60,30,30.21,30.11,11,2,0,0.00
2013-3-10,81.5,65.5,57.1,60.6,54.6,51.1,87,70,41,30.16,30.04,14,2,0,0.00
2013-3-12,67.8,61.8,57.8,60.7,54.9,52.3,83,78,73,30.03,29.95,14,4,0,0.46
2013-3-13,59.8,59.0,57.7,47.7,46.2,45.3,69,63,59,30.20,30.14,11,3,0,0.00
2013-3-14,65.4,58.2,54.1,50.9,45.4,39.0,78,64,39,30.25,30.16,15,3,0,0.00
2013-3-16,75.8,59.4,45.5,60.8,50.0,42.7,92,74,47,30.19,30.10,12,1,0,0.00
2013-3-17,54.8,53.0,52.2,51.9,51.1,50.1,95,93,90,30.11,30.05,2,0,0,0.00
2013-3-18,77.2,67.7,59.6,67.9,64.0,57.6,96,88,72,30.03,29.90,18,2,0,0.08
2013-3-19,82.8,78.6,65.0,69.8,67.3,62.6,92,69,63,30.02,29.91,11,3,0,0.00
2013-3-20,73.8,65.9,59.5,64.6,62.2,58.1,96,88,68,29.97,29.86,14,1,0,0.38
2013-3-21,69.7,63.6,49.5,58.5,44.2,35.0,96,55,31,29.99,29.88,16,4,0,0.01
2013-3-22,49.4,47.6,46.4,44.8,44.0,43.4,91,87,82,29.95,29.90,4,0,0,0.00
2013-3-23,75.8,69.3,66.2,71.8,67.8,65.0,97,95,87,29.96,29.81,13,1,0,0.03
2013-3-24,80.2,73.4,70.2,74.2,70.9,68.5,97,92,81,29.82,29.68,18,3,0,0.14
2013-3-25,70.3,64.8,54.9,68.5,55.2,42.8,95,73,44,30.06,29.76,22,4,0,0.00
2013-3-26,60.4,56.0,50.4,47.8,41.0,37.6,71,58,45,30.25,30.04,28,8,0,0.00
2013-3-27,59.9,54.6,45.4,42.1,39.8,33.4,82,59,42,30.33,30.24,16,4,0,0.00
2013-3-28,45.3,42.9,42.0,40.4,39.8,39.2,91,89,82,30.27,30.23,5,0,0,0.00
2013-3-30,77.5,68.8,58.3,57.6,55.1,49.6,87,63,39,30.25,30.14,12,2,0,0.00
2013-3-31,80.7,77.5,59.2,62.1,59.8,55.0,86,55,49,30.18,30.06,13,3,0,0.00
2013-4-1,77.8,72.0,67.4,70.5,68.1,65.1,93,88,78,30.03,29.98,10,1,0,0.00
2013-4-2,82.0,70.6,64.4,68.0,63.8,59.9,96,81,51,30.09,30.00,10,1,0,0.01
2013-4-3,86.3,71.8,62.9,69.4,65.1,60.6,96,81,55,30.04,29.94,14,2,0,0.00
2013-4-4,72.1,68.4,65.5,69.7,66.8,64.2,97,95,89,30.10,29.90,21,2,0,2.98
2013-4-5,73.8,71.8,69.7,68.7,63.1,58.1,93,75,61,29.91,29.86,19,7,0,0.04
2013-4-7,70.8,70.0,69.7,61.1,60.4,59.8,74,72,69,30.10,30.07,8,0,0,0.00
2013-4-8,80.6,72.9,67.3,65.9,63.3,61.2,81,72,58,30.09,30.04,9,2,0,0.00
2013-4-9,85.2,73.9,65.7,67.4,63.7,61.3,86,72,47,30.11,30.06,9,2,0,0.00
2013-4-10,86.6,75.1,65.9,71.9,66.4,62.6,90,75,59,30.10,29.95,9,1,0,0.01
2013-4-11,82.5,74.9,70.3,72.9,69.8,65.0,95,85,72,29.98,29.81,15,2,0,0.01
2013-4-12,81.2,80.1,79.0,75.5,74.8,74.1,86,84,82,29.93,29.90,15,3,0,0.00
2013-4-13,85.3,77.1,71.5,73.1,69.4,67.3,93,78,61,29.97,29.90,10,2,10,0.00
2013-4-14,85.3,76.7,70.2,75.4,70.2,62.5,95,81,66,30.01,29.85,27,3,27,0.00
2013-4-15,91.1,77.8,67.8,74.3,67.5,62.1,89,72,54,30.07,29.94,12,1,12,0.00
2013-4-16,91.3,78.9,69.7,76.6,71.7,68.1,95,80,52,30.12,30.01,14,2,14,0.04
2013-4-17,88.9,78.4,68.4,69.7,65.6,61.1,93,68,41,30.12,30.00,13,2,13,0.00
2013-4-18,87.5,77.8,67.7,73.5,69.2,65.1,92,76,57,30.04,29.94,12,2,12,0.00
2013-4-19,87.2,78.6,71.0,75.0,72.3,69.2,95,82,62,30.01,29.93,22,2,22,0.00
2013-4-20,79.3,73.9,67.3,73.5,67.5,63.3,94,81,67,30.12,29.97,14,3,15,0.02
2013-4-21,87.3,73.0,62.5,71.0,65.4,58.9,90,78,54,30.12,30.00,16,3,19,0.00
2013-4-22,83.8,73.6,67.6,71.4,68.3,64.8,97,85,63,30.08,29.96,14,2,16,0.48
2013-4-23,86.5,75.1,67.1,68.8,64.6,61.6,91,72,46,30.10,30.00,12,3,12,0.00
2013-4-24,86.5,73.8,62.3,69.3,64.1,58.6,94,74,42,30.13,30.06,12,2,13,0.00
2013-4-25,86.5,75.7,64.6,72.1,66.8,61.9,93,75,51,30.21,30.08,14,2,16,0.00
2013-4-26,87.3,76.5,64.4,71.0,66.3,61.7,94,72,49,30.24,30.13,12,2,14,0.00
2013-4-27,86.8,77.0,67.8,71.2,66.6,63.7,94,72,48,30.21,30.06,12,2,14,0.00
2013-4-28,87.9,76.6,65.8,70.5,65.9,62.2,89,71,46,30.11,29.95,12,2,15,0.00
2013-4-29,87.3,77.2,67.4,72.8,67.8,62.3,89,73,57,30.02,29.91,11,2,14,0.00
2013-4-30,88.2,77.4,68.5,74.3,69.8,66.2,94,79,55,29.99,29.90,12,1,12,0.00
2013-5-1,74.3,70.0,65.7,72.3,68.0,64.5,97,94,86,29.99,29.90,12,2,12,1.21
2013-5-2,80.4,71.8,66.0,72.6,68.1,64.7,97,89,73,29.96,29.81,8,1,9,0.01
2013-5-3,84.8,75.1,66.3,74.5,68.9,64.9,97,82,65,29.83,29.72,18,2,19,0.02
2013-5-4,82.1,73.5,65.5,72.1,68.0,63.8,97,84,66,29.82,29.69,23,4,23,0.01
2013-5-5,77.8,70.8,65.0,67.6,58.1,52.0,92,66,43,29.95,29.80,18,6,20,0.00
2013-5-6,79.7,71.6,61.5,64.2,60.4,56.9,85,69,52,30.02,29.90,14,3,14,0.00
2013-5-7,80.7,69.5,57.7,63.2,59.5,55.4,94,73,52,30.06,29.98,13,2,15,0.00
2013-5-8,82.0,71.5,60.3,65.8,61.9,58.4,96,74,53,30.14,30.03,12,1,13,0.00
2013-5-9,86.7,73.4,61.3,68.0,63.8,59.2,96,74,47,30.15,30.07,13,2,13,0.00
2013-5-10,89.7,76.8,64.5,74.5,69.2,61.5,97,79,49,30.13,30.00,11,1,12,0.01
2013-5-11,88.9,79.2,71.7,77.9,74.1,70.4,97,85,64,30.06,29.99,12,1,13,0.00
2013-5-12,87.2,79.4,73.3,76.6,73.2,68.5,97,82,67,30.05,29.94,16,2,16,0.00
2013-5-13,84.7,74.5,66.9,70.2,63.3,52.1,95,71,44,30.13,30.00,18,3,21,0.00
2013-5-14,84.9,72.7,59.0,58.2,53.3,44.2,79,53,25,30.20,30.10,16,3,18,0.00
2013-5-15,89.2,74.9,61.7,66.5,59.5,52.1,85,62,31,30.20,30.07,12,2,15,1.76
2013-5-16,86.5,75.5,64.5,67.6,64.1,60.4,90,69,49,30.12,30.00,13,2,14,0.00
2013-5-17,88.3,77.9,66.7,70.6,66.9,63.1,89,70,51,30.09,30.01,12,2,14,0.00
2013-5-18,90.0,79.6,69.9,75.3,69.7,64.1,95,74,48,30.10,30.01,13,2,14,0.00
2013-5-19,91.4,79.8,67.8,72.5,69.1,65.4,94,72,47,30.09,29.98,11,1,13,0.00
2013-5-20,93.0,79.2,70.0,76.6,70.4,65.3,89,76,50,30.07,29.95,19,2,22,0.00
2013-5-21,88.5,76.0,68.2,74.5,69.9,66.2,97,83,60,30.02,29.91,12,1,14,0.15
2013-5-22,88.8,78.5,68.1,76.7,71.0,66.5,96,79,54,29.96,29.89,13,2,15,0.01
2013-5-23,90.0,79.8,70.0,76.1,72.1,67.9,97,79,61,30.01,29.90,13,2,16,0.00
2013-5-24,92.5,81.3,69.6,78.6,72.1,67.6,97,76,49,30.07,29.97,15,3,16,0.00
2013-5-25,92.5,81.5,71.5,72.1,66.7,61.0,90,64,38,30.15,30.04,14,3,15,0.00
2013-5-26,89.5,78.2,66.7,65.4,60.3,52.1,86,58,29,30.20,30.09,12,2,12,0.00
2013-5-27,90.7,79.1,66.0,68.4,63.9,61.0,90,63,39,30.17,30.02,13,3,15,0.00
2013-5-28,91.7,79.4,70.9,73.3,70.3,67.9,91,75,52,30.12,30.00,16,4,18,0.00
2013-5-29,89.3,78.5,71.3,74.5,70.7,67.9,94,78,55,30.07,30.00,18,4,20,0.05
2013-5-30,89.4,79.6,72.6,73.3,70.8,68.4,93,76,56,30.06,29.97,21,5,21,0.00
2013-5-31,89.8,78.5,72.7,75.9,72.2,68.8,94,82,57,30.07,29.99,14,3,16,0.45
2013-6-1,87.5,78.1,72.6,80.3,73.7,70.5,96,87,66,30.03,29.94,11,2,12,0.30
2013-6-2,90.5,80.7,72.7,78.7,74.8,71.6,97,83,65,29.99,29.90,11,1,12,0.00
2013-6-3,83.0,78.2,74.1,78.0,74.7,72.4,97,89,80,29.99,29.90,13,1,13,0.91
2013-6-4,84.0,78.9,74.9,76.7,73.7,71.7,93,84,72,30.01,29.93,14,1,15,0.01
2013-6-5,84.6,77.7,73.7,75.3,73.2,71.5,96,87,66,30.00,29.87,12,2,12,0.28
2013-6-6,79.5,76.1,73.8,76.4,73.8,72.5,97,93,86,29.87,29.68,22,4,29,1.52
2013-6-7,88.1,80.0,74.3,78.3,74.7,72.2,94,84,69,29.96,29.78,10,1,10,0.00
2013-6-8,88.0,78.6,70.9,80.2,74.6,69.7,97,88,72,30.09,29.95,14,1,15,0.73
2013-6-9,90.7,79.2,71.0,79.2,74.9,69.8,98,88,65,30.08,30.00,10,1,12,0.45
2013-6-10,90.8,81.8,74.4,80.4,75.5,72.2,97,82,66,30.08,30.00,13,1,13,0.00
2013-6-11,92.2,81.9,75.2,81.1,75.4,71.8,96,82,60,30.08,30.00,11,1,12,0.06
2013-6-12,94.0,82.8,72.1,78.6,74.0,70.3,96,76,57,30.08,29.99,15,1,15,0.00
2013-6-13,91.7,82.9,75.0,78.8,75.8,72.8,96,80,59,30.04,29.92,14,2,14,0.00
2013-6-14,91.1,84.0,78.9,78.3,75.1,73.5,86,75,62,29.96,29.88,14,2,18,0.00
2013-6-15,91.0,83.5,77.3,79.9,76.0,72.1,91,79,64,30.04,29.92,12,2,13,0.00
2013-6-16,92.3,83.9,76.1,81.8,77.4,74.3,95,82,64,30.07,30.01,12,1,12,0.00
2013-6-17,93.5,85.2,75.9,79.4,76.6,73.0,96,77,57,30.07,29.98,11,1,11,0.00
2013-6-18,92.8,84.8,75.6,80.4,77.0,73.8,95,78,61,30.05,29.97,10,1,10,0.00
2013-6-19,93.8,84.6,75.2,81.5,77.1,72.2,95,79,58,30.03,29.97,22,1,22,0.51
2013-6-20,92.3,82.4,74.0,80.8,75.2,71.2,96,80,60,30.08,30.00,13,1,13,0.01
2013-6-21,93.5,82.3,73.0,78.4,73.3,70.4,95,76,53,30.10,30.03,10,1,11,0.00
2013-6-22,93.3,82.1,73.1,77.1,73.0,70.3,95,76,54,30.11,30.03,18,1,18,0.00
2013-6-23,91.9,80.0,74.0,79.1,74.3,70.2,96,84,58,30.12,30.05,13,1,13,0.73
2013-6-24,92.6,82.4,74.1,79.0,75.0,71.8,97,80,53,30.17,30.05,12,1,12,0.02
2013-6-25,92.7,82.6,73.9,79.1,74.9,70.6,96,79,54,30.14,30.00,14,1,19,0.16
2013-6-26,91.8,80.8,74.4,80.9,74.9,69.9,97,83,64,30.06,30.00,13,1,14,0.03
2013-6-27,92.4,82.7,72.2,79.5,74.6,70.0,96,78,58,30.04,29.94,10,1,12,0.01
2013-6-28,92.0,83.4,74.1,81.0,76.7,72.8,98,81,64,29.98,29.85,12,1,13,0.92
2013-6-29,90.8,83.0,76.5,79.8,76.4,73.4,95,81,67,29.88,29.80,16,1,21,0.41
2013-6-30,89.7,82.0,74.0,80.5,76.5,72.6,96,84,67,29.89,29.80,14,1,15,0.93
2013-7-1,77.9,75.2,73.1,76.2,73.8,72.0,97,96,90,29.98,29.84,14,2,15,1.62
2013-7-2,91.7,78.5,72.6,78.8,73.7,71.4,97,86,61,30.08,29.96,13,2,14,1.17
2013-7-3,90.0,77.3,74.3,78.4,74.0,71.8,97,90,65,30.11,30.02,15,1,15,3.19
2013-7-4,90.8,78.6,72.7,79.1,74.0,70.9,96,87,57,30.13,30.04,13,2,16,0.12
2013-7-5,90.2,77.8,72.8,77.2,73.6,69.4,95,88,64,30.13,30.05,14,2,23,0.14
2013-7-6,93.1,81.7,73.4,78.0,74.8,71.9,96,81,55,30.10,30.01,13,1,13,0.00
2013-7-7,93.2,83.4,75.1,78.8,74.1,72.1,94,75,53,30.12,30.00,12,2,14,0.04
2013-7-8,93.7,82.4,75.4,77.8,74.1,71.0,93,77,53,30.15,30.06,10,1,11,0.53
2013-7-9,93.8,82.9,74.1,75.6,72.7,68.7,93,73,46,30.15,30.04,13,1,13,0.00
2013-7-10,90.7,80.3,73.7,76.3,73.3,71.2,94,81,58,30.08,29.96,20,1,20,1.43
2013-7-11,90.6,81.3,73.9,77.8,74.3,71.9,95,80,61,30.02,29.93,10,1,11,0.01
2013-7-12,88.3,81.3,75.1,77.5,74.4,71.5,93,80,67,29.95,29.89,8,1,10,0.22
2013-7-13,87.6,79.0,73.7,77.7,74.0,71.7,95,86,67,29.98,29.90,9,1,9,0.73
2013-7-14,89.9,78.7,73.2,80.1,73.6,70.5,94,85,64,30.07,29.94,10,1,12,0.01
2013-7-15,90.2,79.4,73.8,76.9,72.9,70.5,95,82,59,30.09,29.98,13,1,15,1.63
2013-7-16,87.5,77.2,73.9,75.6,72.3,69.3,95,85,63,30.13,30.05,29,2,29,0.18
2013-7-17,90.3,77.9,73.7,76.0,72.5,70.2,93,84,58,30.14,30.06,20,2,22,0.05
2013-7-18,85.8,77.0,72.1,75.8,72.4,69.0,94,86,69,30.10,30.03,14,1,14,1.68
2013-7-19,89.9,78.5,71.9,79.1,73.4,70.1,95,85,63,30.11,30.04,19,1,21,0.05
2013-7-20,90.8,79.3,72.8,81.1,73.9,70.3,94,84,66,30.11,30.01,18,1,18,0.04
2013-7-21,91.7,82.9,73.9,81.5,75.9,71.6,94,80,66,30.12,30.04,10,1,11,0.00
2013-7-22,92.3,84.5,76.4,80.5,77.1,74.2,93,79,66,30.13,30.06,9,1,11,0.00
2013-7-23,91.5,84.4,77.7,79.0,75.5,73.7,88,75,63,30.10,29.97,11,1,12,0.00
2013-7-24,91.0,84.7,79.8,78.8,75.3,73.2,81,74,63,30.01,29.91,16,3,18,0.00
2013-7-25,91.3,84.4,81.2,79.3,76.2,75.0,83,77,66,30.01,29.89,15,4,19,0.00
2013-7-26,92.0,84.5,76.8,80.0,77.0,74.0,93,79,64,30.01,29.94,14,3,14,0.27
2013-7-27,93.6,84.3,76.7,78.7,75.4,72.6,94,76,54,30.00,29.91,12,2,15,0.00
2013-7-28,92.3,82.9,75.2,79.5,75.3,72.6,94,79,60,30.06,29.93,10,0,11,0.03
2013-7-29,95.5,82.3,73.9,78.9,74.0,68.7,93,78,53,30.14,30.02,20,1,21,0.62
2013-7-30,95.5,82.0,74.3,78.6,74.4,72.1,94,80,50,30.16,30.05,12,1,16,0.36
2013-7-31,93.9,82.7,75.4,79.8,75.3,71.4,94,79,56,30.13,30.00,10,1,12,0.01
2013-8-1,93.2,84.0,76.0,79.6,74.9,70.1,91,75,59,30.05,29.93,9,1,11,0.00
2013-8-2,93.6,82.6,75.1,80.8,75.3,71.9,91,79,61,30.04,29.93,11,1,11,0.09
2013-8-3,93.5,83.9,74.9,80.3,76.2,72.1,95,79,61,30.09,30.00,16,1,16,0.27
2013-8-4,91.3,84.5,78.7,81.3,77.1,74.9,92,79,67,30.09,30.00,12,1,14,0.12
2013-8-5,93.6,86.3,78.4,81.6,77.5,74.6,91,76,63,30.03,29.94,14,2,14,0.00
2013-8-6,90.3,82.7,76.1,80.0,77.0,72.5,94,83,70,29.98,29.88,18,0,18,0.71
2013-8-7,94.0,81.3,74.1,81.8,75.5,69.9,94,84,59,29.95,29.89,16,1,16,0.51
2013-8-8,93.0,82.2,75.6,79.4,75.2,71.9,94,81,57,30.01,29.91,13,1,14,0.01
2013-8-9,93.0,80.0,73.5,79.2,74.2,70.1,94,84,56,30.05,29.95,14,1,14,1.18
2013-8-10,93.0,81.8,72.9,79.4,75.0,71.0,94,81,60,30.11,30.02,9,1,11,0.02
2013-8-11,95.5,85.1,75.0,81.2,76.2,72.4,93,76,55,30.13,30.04,9,1,11,0.00
2013-8-12,95.0,85.3,76.2,80.4,76.1,72.7,93,75,52,30.12,29.99,9,1,10,0.00
2013-8-13,93.8,85.0,75.3,79.5,75.6,72.2,92,74,54,30.05,29.93,13,2,13,0.01
2013-8-14,93.0,85.2,77.2,80.4,76.5,73.6,92,76,59,30.00,29.92,10,1,12,0.00
2013-8-15,90.7,82.2,75.8,78.6,75.0,71.6,89,79,66,30.04,29.95,3,1,13,0.01
2013-8-16,93.3,84.6,77.8,80.1,76.5,72.5,91,77,62,30.04,29.95,18,1,19,0.00
2013-8-17,92.5,81.0,74.3,81.4,75.1,71.4,94,84,57,30.07,29.98,19,1,19,0.57
2013-8-18,93.9,80.6,73.7,79.5,75.0,70.9,94,84,59,30.11,29.98,12,1,12,1.15
2013-8-19,94.0,79.9,73.9,79.3,74.2,70.8,94,84,57,30.06,29.95,11,1,13,0.60
2013-8-20,94.2,79.6,73.7,78.2,74.1,69.9,94,84,55,30.06,29.98,11,1,12,0.52
2013-8-21,94.6,80.9,75.0,79.0,75.0,69.9,93,84,53,30.08,29.96,19,1,22,0.57
2013-8-22,93.5,80.1,74.7,81.6,75.1,72.2,94,86,57,30.06,29.96,11,1,12,0.87
2013-8-23,93.5,80.1,74.6,80.9,75.2,71.6,95,86,58,30.01,29.94,14,1,16,1.82
2013-8-24,93.0,81.0,74.3,81.4,75.3,72.1,95,84,60,30.10,29.99,13,1,16,0.31
2013-8-25,89.3,79.3,73.4,78.5,74.0,71.2,94,85,65,30.14,30.05,11,1,13,0.00
2013-8-26,92.6,81.2,75.0,76.6,73.7,70.0,93,79,54,30.13,29.99,12,1,14,0.00
2013-8-27,89.5,78.8,73.0,77.7,73.2,70.6,95,83,62,30.04,29.97,10,1,11,0.08
2013-8-28,91.8,78.8,71.6,77.6,72.4,69.5,95,82,55,30.05,29.97,11,1,12,0.01
2013-8-29,91.3,81.6,72.5,77.3,73.4,70.1,94,78,56,30.03,29.93,14,2,14,0.12
2013-8-30,89.8,80.7,74.8,78.0,75.4,69.7,94,85,62,30.03,29.89,21,1,21,1.45
2013-8-31,90.8,82.5,75.3,79.2,75.2,71.4,94,80,65,29.98,29.89,10,1,10,0.00
2013-9-1,92.0,82.5,75.3,79.6,74.9,72.2,93,79,61,29.99,29.91,9,1,10,0.01
2013-9-2,92.9,82.2,75.1,80.4,75.2,72.0,94,80,64,30.02,29.93,11,1,13,0.03
2013-9-3,91.1,82.7,76.2,79.9,75.3,70.8,94,79,63,30.03,29.92,13,1,13,0.01
2013-9-4,92.7,80.3,72.1,77.7,74.3,68.6,93,83,59,30.07,29.95,19,1,21,0.72
2013-9-5,95.0,81.3,74.6,80.9,74.4,70.0,93,81,55,30.08,29.97,12,1,18,0.03
2013-9-6,93.6,82.1,73.4,81.2,75.3,70.2,94,81,59,30.05,29.92,22,1,22,1.45
2013-9-7,92.4,80.0,72.1,77.9,73.0,70.2,94,80,54,30.01,29.90,11,2,12,0.00
2013-9-8,91.5,81.0,72.4,79.0,73.6,69.9,93,79,59,29.96,29.85,12,1,12,0.01
2013-9-9,93.1,83.5,75.6,76.6,73.3,70.7,91,73,49,30.01,29.91,9,2,11,0.00
2013-9-10,92.3,83.1,74.7,75.1,72.0,67.2,92,71,47,30.06,29.97,14,2,14,0.00
2013-9-11,89.7,81.7,75.3,75.9,72.4,68.4,89,74,55,30.05,29.96,20,2,20,0.00
2013-9-12,91.2,80.2,74.0,78.9,73.1,69.8,92,80,61,30.01,29.88,11,1,13,0.00
2013-9-13,91.7,81.0,71.8,78.7,73.5,69.7,94,79,62,29.91,29.81,13,1,14,0.01
2013-9-14,92.3,82.8,74.5,79.6,74.6,69.1,94,77,61,29.96,29.83,14,1,14,0.00
2013-9-15,93.7,79.6,71.8,77.7,73.1,68.7,94,82,57,30.08,29.94,19,2,21,1.20
2013-9-16,92.0,78.0,72.9,78.6,73.5,68.9,94,87,60,30.05,29.97,16,1,22,0.84
2013-9-17,91.8,78.2,72.8,77.2,73.1,71.0,95,85,57,30.04,29.92,13,2,16,0.22
2013-9-18,92.5,79.1,73.4,77.4,73.4,71.2,94,84,55,30.02,29.93,12,1,13,0.13
2013-9-19,90.7,79.2,73.6,78.6,73.7,71.1,94,84,61,30.03,29.95,9,1,10,0.03
2013-9-20,90.1,81.1,73.4,74.3,71.4,68.3,92,74,54,30.02,29.88,9,1,10,0.00
2013-9-21,89.3,80.0,71.0,75.9,71.3,67.3,90,75,61,29.93,29.78,10,1,10,0.00
2013-9-22,90.3,82.4,74.8,78.0,75.0,72.1,92,79,64,29.85,29.76,13,1,13,0.00
2013-9-23,82.0,77.6,75.1,78.2,75.0,73.4,95,92,83,29.95,29.82,10,1,11,2.99
2013-9-24,78.8,75.9,73.7,76.2,74.0,71.9,95,94,88,29.96,29.85,8,0,11,1.74
2013-9-25,80.2,75.8,71.3,76.9,72.8,69.2,95,91,81,29.94,29.80,20,1,20,1.45
2013-9-26,90.3,82.6,75.9,80.9,76.5,71.4,91,82,67,29.86,29.79,21,3,21,0.01
2013-9-27,86.7,78.5,71.4,73.2,71.0,68.8,92,79,61,29.95,29.85,12,2,14,0.00
2013-9-28,88.9,79.1,72.0,75.4,71.4,69.4,92,78,57,29.99,29.90,14,2,15,0.00
2013-9-29,90.2,79.7,71.6,72.9,70.0,65.8,90,74,48,29.98,29.88,9,1,10,0.00
2013-9-30,91.2,80.4,71.2,75.7,71.7,68.7,93,76,51,29.98,29.90,10,1,10,0.00
2013-10-1,91.5,81.3,72.6,75.8,71.8,69.8,93,74,52,30.03,29.94,11,2,11,0.00
2013-10-2,89.3,80.5,72.8,74.6,71.7,69.7,90,76,59,30.03,29.95,12,2,13,0.00
2013-10-3,91.5,80.2,73.1,78.6,72.4,69.2,88,78,56,30.05,29.95,10,1,10,0.00
2013-10-4,89.5,81.2,74.9,76.9,72.9,70.5,91,77,54,30.07,29.98,8,1,9,0.00
2013-10-5,90.2,80.2,72.6,76.4,72.3,69.1,91,78,60,30.05,29.92,10,2,11,0.00
2013-10-6,90.0,80.3,72.2,76.4,72.9,69.9,94,79,54,29.98,29.86,8,1,10,0.00
2013-10-7,87.6,79.5,73.7,79.2,74.3,70.8,94,85,75,29.87,29.76,15,2,18,0.30
2013-10-8,88.0,81.2,75.3,76.1,73.7,70.5,86,78,65,29.94,29.81,13,3,15,0.01
2013-10-9,79.2,74.9,69.7,70.9,69.2,65.4,89,83,73,30.03,29.93,11,2,13,0.00
2013-10-10,87.0,75.0,66.4,71.7,67.6,64.0,93,79,55,30.05,29.95,9,1,9,0.00
2013-10-11,87.8,76.5,67.0,70.7,67.1,64.5,94,75,50,30.04,29.94,11,1,11,0.00
2013-10-12,87.3,75.2,65.9,68.6,64.9,62.3,90,72,47,30.04,29.97,12,1,13,0.00
2013-10-13,88.0,75.2,64.8,71.4,64.2,60.6,90,71,42,30.07,29.97,12,1,13,0.00
2013-10-14,86.3,75.7,65.8,70.2,66.5,62.3,92,75,52,30.04,29.92,13,2,13,0.00
2013-10-15,84.2,75.2,67.8,72.4,68.3,65.1,91,80,62,29.99,29.89,11,2,12,0.00
2013-10-16,84.5,75.7,69.9,75.2,69.6,67.2,92,82,67,29.97,29.89,9,1,10,0.00
2013-10-17,88.0,77.1,68.9,74.1,69.9,66.2,93,79,57,29.98,29.89,11,1,12,0.00
2013-10-18,89.9,78.8,71.0,76.1,72.0,68.3,93,81,59,29.98,29.89,8,0,8,0.00
2013-10-19,89.2,79.2,72.1,78.2,73.7,69.5,93,84,64,29.95,29.86,9,0,9,0.00
2013-10-20,90.6,79.9,73.5,78.6,73.8,71.3,95,82,64,29.95,29.86,10,1,10,0.00
2013-10-21,89.1,79.2,72.9,77.3,72.9,69.9,94,82,62,30.00,29.92,9,1,10,0.00
2013-10-22,88.6,78.0,70.2,78.6,72.9,68.1,95,85,70,29.95,29.82,21,1,22,0.26
2013-10-23,79.7,75.0,70.9,72.9,65.8,53.5,94,75,47,30.00,29.81,18,3,18,0.03
2013-10-24,74.0,67.8,62.6,60.2,54.5,47.3,83,63,52,30.16,29.99,14,2,15,0.00
2013-10-25,81.1,69.2,59.6,60.9,57.3,54.1,86,68,41,30.23,30.13,13,2,15,0.00
2013-10-26,81.7,68.6,59.8,63.0,58.2,51.6,88,71,40,30.20,30.09,11,2,12,0.00
2013-10-27,81.0,67.8,56.7,61.2,57.6,53.9,92,72,41,30.12,30.04,12,1,12,0.00
2013-10-28,84.6,70.4,59.6,64.4,59.8,55.6,87,71,43,30.18,30.08,11,1,13,0.00
2013-10-29,86.4,73.9,63.5,67.8,63.2,59.8,89,71,47,30.22,30.11,13,2,14,0.00
2013-10-30,86.8,75.2,66.1,69.9,65.8,63.1,92,74,51,30.21,30.07,12,1,14,0.00
2013-10-31,88.2,75.1,65.9,72.4,67.6,63.2,92,79,53,30.12,29.98,11,1,11,0.00
2013-11-1,86.2,76.7,69.3,76.6,71.6,66.9,94,85,71,30.00,29.89,11,1,13,0.00
2013-11-2,79.1,73.4,66.9,74.0,68.8,62.3,92,86,69,29.98,29.82,22,1,23,0.39
2013-11-3,77.2,68.1,60.6,62.5,53.5,46.0,88,62,36,30.10,29.97,18,2,18,0.00
2013-11-4,81.2,69.3,58.8,63.0,58.7,51.8,85,70,50,30.14,30.06,20,3,20,0.00
2013-11-5,83.5,74.3,65.6,71.1,66.8,62.2,90,78,62,30.11,30.03,16,4,20,0.00
2013-11-6,86.3,76.3,69.4,70.0,67.6,65.7,89,76,55,30.09,29.99,11,2,13,0.00
2013-11-7,81.6,73.2,66.9,70.9,67.1,64.4,93,82,66,30.05,29.97,11,1,11,0.00
2013-11-8,81.3,72.0,65.6,69.0,65.0,60.5,92,80,61,30.10,29.99,14,2,16,0.00
2013-11-9,83.6,73.7,64.9,70.3,65.0,60.2,85,75,61,30.14,30.06,14,3,19,0.00
2013-11-10,84.2,74.5,66.5,69.7,65.7,62.7,88,75,57,30.15,30.05,10,1,13,0.00
2013-11-11,83.9,74.1,67.5,70.0,66.3,64.0,90,77,59,30.15,30.05,10,1,10,0.00
2013-11-12,80.2,71.9,65.9,69.8,66.2,60.8,92,83,67,30.10,30.00,13,1,13,0.01
2013-11-13,69.9,63.4,55.0,60.8,53.2,48.8,80,69,62,30.28,30.06,16,4,20,0.00
2013-11-14,78.8,64.7,53.3,59.0,54.3,48.8,85,70,47,30.27,30.15,14,3,15,0.00
2013-11-15,76.7,69.3,62.7,66.4,62.3,57.8,86,79,66,30.16,30.03,11,2,12,0.01
2013-11-16,78.8,73.0,69.4,69.9,66.7,64.4,92,81,68,30.11,30.01,13,2,13,0.05
2013-11-17,86.2,75.7,70.2,72.2,68.5,64.1,88,79,55,30.07,29.99,9,1,10,0.00
2013-11-18,84.0,75.3,69.2,73.5,70.0,66.7,93,84,69,30.02,29.93,10,1,11,0.00
2013-11-19,82.1,75.4,70.4,72.8,69.6,63.2,93,83,72,29.96,29.86,11,1,11,0.00
2013-11-20,85.8,73.0,66.0,73.2,67.3,61.8,91,83,64,30.08,29.95,9,1,11,0.53
2013-11-21,84.8,75.3,70.2,73.5,70.0,67.4,93,84,67,30.16,30.06,13,3,15,0.00
2013-11-22,84.1,75.5,69.4,72.8,68.7,64.0,92,80,62,30.17,30.06,13,2,13,0.01
2013-11-23,84.0,72.1,64.1,70.6,65.5,61.4,93,81,59,30.11,30.00,13,2,15,0.00
2013-11-24,73.4,67.3,60.3,64.9,61.4,53.8,91,82,71,30.20,30.02,14,3,15,0.00
2013-11-25,78.0,69.0,61.0,63.2,59.7,54.4,85,73,57,30.20,30.03,22,6,22,0.00
2013-11-26,83.3,74.2,67.6,73.6,69.4,63.5,93,85,72,30.03,29.77,25,3,25,0.38
2013-11-27,73.0,65.8,51.5,71.2,58.7,44.3,94,78,61,30.19,29.75,25,7,26,0.02
2013-11-28,64.8,52.3,40.4,50.9,43.1,32.5,85,72,54,30.34,30.19,18,3,18,0.00
2013-11-29,71.9,61.1,51.6,58.4,53.6,48.2,90,77,58,30.34,30.24,12,2,14,0.00
2013-11-30,75.4,64.3,54.5,65.4,58.4,51.0,92,82,69,30.30,30.16,13,2,13,0.00
2013-12-1,75.3,64.6,59.7,66.7,60.9,57.1,94,88,74,30.18,29.98,12,2,12,0.00
2013-12-2,69.7,64.5,59.3,62.3,59.9,56.7,94,85,73,29.98,29.85,7,0,7,0.01
2013-12-3,77.6,69.0,60.7,69.0,63.6,57.8,92,83,72,29.98,29.89,10,0,10,0.00
2013-12-4,82.8,71.8,63.9,71.0,66.3,61.8,94,84,67,30.08,29.96,10,0,11,0.00
2013-12-5,83.2,71.4,64.7,70.8,65.9,62.3,93,84,57,30.16,30.07,8,0,10,0.00
2013-12-6,84.8,72.8,65.6,73.2,68.0,62.8,95,86,66,30.17,30.07,12,1,15,0.01
2013-12-7,83.8,72.2,65.3,71.4,66.8,63.1,94,84,65,30.23,30.13,7,0,8,0.01
2013-12-8,85.5,72.4,64.9,71.1,66.6,62.8,95,83,54,30.21,30.08,10,1,11,0.01
2013-12-9,83.8,72.4,65.5,73.2,67.6,63.1,94,85,68,30.17,30.08,10,0,10,0.00
2013-12-10,83.7,71.1,61.3,73.6,66.8,58.7,95,87,72,30.16,30.09,8,0,11,0.01
2013-12-11,83.8,71.5,64.7,71.2,65.7,60.7,94,83,61,30.23,30.13,12,2,12,0.00
2013-12-12,73.1,65.9,56.1,64.9,55.6,33.2,94,72,40,30.29,30.17,14,2,14,0.00
2013-12-13,77.5,63.5,51.2,59.5,52.4,35.5,84,68,46,30.27,30.08,12,2,13,0.00
2013-12-14,82.5,72.7,63.3,72.4,66.9,58.9,90,83,69,30.09,29.95,15,2,19,0.00
2013-12-15,73.9,70.0,60.9,71.7,65.0,56.7,94,85,70,30.12,29.90,14,3,19,0.09
2013-12-16,64.1,57.7,51.4,57.1,50.2,44.2,86,77,58,30.22,30.10,12,2,13,0.00
2013-12-17,70.8,57.4,47.1,56.8,49.6,42.7,86,76,57,30.25,30.14,11,2,11,0.00
2013-12-18,71.5,58.0,46.5,52.5,47.1,42.7,92,70,37,30.28,30.19,14,1,14,0.00
2013-12-19,78.0,61.1,48.0,60.2,51.9,44.4,89,74,45,30.26,30.14,11,1,11,0.00
2013-12-20,84.3,70.4,58.3,70.2,63.0,54.4,89,78,60,30.18,30.07,12,1,13,0.00
2013-12-21,86.5,74.5,67.8,72.6,68.1,64.1,92,81,59,30.12,30.01,14,2,16,0.00
2013-12-22,84.2,74.9,69.3,73.4,69.3,66.4,93,83,68,30.13,30.05,16,1,22,0.01
2013-12-23,83.7,74.5,67.8,74.5,70.2,65.7,95,87,73,30.16,30.09,13,1,14,0.00
2013-12-24,73.8,65.2,52.6,71.2,54.9,37.6,93,71,43,30.25,30.11,18,4,19,0.00
2013-12-25,77.0,62.6,49.7,62.4,52.2,40.6,78,69,58,30.24,30.10,14,3,14,0.00
2013-12-26,79.0,68.7,61.4,65.1,60.4,55.7,86,75,56,30.20,30.07,12,2,12,0.00
2013-12-27,78.0,68.5,62.6,68.2,62.6,58.0,89,82,71,30.23,30.11,12,3,12,0.00
2013-12-28,80.3,72.3,65.0,71.0,66.9,61.8,92,84,72,30.20,29.99,15,2,15,0.00
2013-12-29,76.0,70.8,64.0,72.4,67.5,61.0,93,89,85,30.01,29.89,16,2,19,0.22
2013-12-30,67.5,63.8,61.9,61.4,59.7,58.6,93,87,79,30.19,30.00,12,2,12,0.00
2013-12-31,67.8,63.6,59.9,58.9,54.8,52.5,89,74,61,30.29,30.15,10,2,12,0.00
2014-1-1,71.9,64.6,59.4,65.5,59.8,53.8,92,85,71,30.23,30.04,12,3,13,0.08
2014-1-2,80.1,69.9,61.8,72.6,66.6,55.9,95,89,77,30.04,29.85,28,2,28,0.16